OBJECT J, 53452

Orbit data source: Space-Track

You're viewing an Uncataloged Satellite

Recently launched and/or uncataloged satellites may have evolving metadata. Metadata may include but not limited to: Owner, Maufacturer, Bus, Motor, and Mission.

OBJECT J, 53452 is a satellite owned by Changguang WJ (CN) in SSO that was launched on Wed, 10 Aug 2022 UTC via a CHANG ZHENG 6 launch vehicle from the Taiyaun Space Center, China (TSC). Unknown objects in Earth's orbit typically refer to objects detected orbiting the Earth but have not yet been identified or cataloged. These objects could be anything from previously untracked satellites, spent rocket stages, debris from satellite collisions, or even natural meteoroids temporarily captured by Earth's gravity.

Loading next visibility...
Identifier
53452, 2022-098J
Orbit
SSO
Country
Flag of CNCN / PRC
Related business
Manufacturer
Changguang WJ
Mission
Operational Commercial Imaging
Bus & Motor
JL-1, Unknown motor
Mass
42 kg wet, 42 kg dry
Launch date (UTC)
2022-08-10 (3 years ago)
Launch vehicle
CHANG ZHENG 6
Launch site
Taiyaun Space Center, China (TSC)
Object type
Unknown
Shape & HBR
Box + 2 Pan, 0.8 m
Radar Cross Section
2.000 m², Medium (>0.1 m² and < 1m²)

Expand to show TLE details & history
Last TLE update: 7 hours ago

TLE from 7 hours ago
0 OBJECT J
1 53452U 22098J   25298.98502738  .00040911  00000-0  87829-3 0  9990
2 53452  97.5381  51.4459 0003937 107.0514 253.1166 15.44587204178338
Epoch: 2025-10-25T23:38Z
TLE epoch observation values (Epoch: 2025-10-25T23:38:26.365Z)
Latitude
0.00001°
Longitude
22.22832°
Altitude
436.491 km
Speed
7.649 km/s
True Right ascension
03h 25m 47s
True Declination
0° 00' 00"
Sunlit
Object was in full shadow at epoch
Visualization orbit readout
Latitude
Unknown
Longitude
Unknown
Altitude
Unknown
Speed
Unknown
Apparent Right ascension
Unknown
Apparent Declination
Unknown
Sunlit
N/A
Visualization observer readout
Local Sidereal Time
01:34:59
Azimuth
Unknown
Elevation
Unknown
Doppler factor
Unknown
Orbital elements
Apogee altitude
432.21 km
Perigee altitude
426.85 km
Semi-major axis
6,807.667 km
Eccentricity
0.00039
Inclination
97.5381°
RAAN
51.4459°
Arg. of periapsis
107.0514°
True anomaly
253.07344°
Mean anomaly
253.1166°
Eccentric anomaly
253.09502°
Mean motion
3.86408 °/min
Orbital period
93.17 mins
BSTAR
0.00087829
Loading maneuver chart data...
Computing Atmospheric mass density...
Loading historical data...
Loading historical data...
Loading historical data...
Loading historical data...
Loading historical data...
Loading historical data...
Loading historical data...

Documentation

Showing up to 5 results
|